When you browse on this site, cookies collect data to enhance your experience and personalize the content and advertising you see.
Visit our Privacy Policy to learn more. By continuing to use the site, you agree to this use of cookies and data.
  • In Hungary
  • List of Countries
  • For 7 days
  • Water Temperature
  • Satellite Maps
  • Weather Map
  • News
  • Weather Widgets
  • user-avatar
    Login

    Hourly Weather Moyomamba

    Today, 21 November, Wednesday

    Time Temperature Precipitation Wind Pressure Humidity
    00:00 +19°C° 0.1 mm 0 mps 682 mmHg 92%
    01:00 +18°C° 0 mm 0 mps 682 mmHg 92%
    02:00 +18°C° 0.1 mm 0 mps 682 mmHg 92%
    03:00 +18°C° 0.1 mm 0 mps 681 mmHg 92%
    04:00 +18°C° 0.1 mm 0 mps 681 mmHg 92%
    05:00 +19°C° 0 mm 0 mps 682 mmHg 88%
    06:00 +19°C° 0 mm 0 mps 682 mmHg 84%
    07:00 +20°C° 0 mm 0 mps 682 mmHg 81%
    08:00 +23°C° 0.1 mm 0 mps 683 mmHg 71%
    09:00 +27°C° 0.1 mm 1 mps 684 mmHg 61%
    10:00 +29°C° 0.1 mm 1 mps 684 mmHg 52%
    11:00 +30°C° 0.3 mm 1 mps 684 mmHg 52%
    12:00 +30°C° 0.3 mm 1 mps 683 mmHg 53%
    13:00 +30°C° 0.3 mm 1 mps 682 mmHg 54%
    14:00 +30°C° 0.1 mm 1 mps 681 mmHg 54%
    15:00 +30°C° 0.1 mm 1 mps 681 mmHg 55%
    16:00 +30°C° 0.1 mm 2 mps 680 mmHg 55%
    17:00 +28°C° 0.1 mm 1 mps 680 mmHg 64%
    18:00 +26°C° 0.1 mm 1 mps 680 mmHg 73%
    19:00 +24°C° 0.1 mm 1 mps 680 mmHg 81%
    20:00 +23°C° 0.2 mm 1 mps 680 mmHg 84%
    21:00 +22°C° 0.2 mm 1 mps 681 mmHg 86%
    22:00 +22°C° 0.2 mm 1 mps 681 mmHg 89%
    23:00 +21°C° 0 mm 1 mps 681 mmHg 88%

    Tomorrow, 22 November, Thursday

    Time Temperature Precipitation Wind Pressure Humidity
    00:00 +21°C° 0 mm 1 mps 681 mmHg 88%
    01:00 +21°C° 0 mm 1 mps 680 mmHg 87%
    02:00 +21°C° 0 mm 1 mps 680 mmHg 86%
    03:00 +21°C° 0 mm 1 mps 680 mmHg 85%
    04:00 +20°C° 0 mm 1 mps 679 mmHg 84%
    05:00 +19°C° 0 mm 0 mps 680 mmHg 80%
    06:00 +20°C° 0 mm 0 mps 681 mmHg 76%
    07:00 +21°C° 0 mm 0 mps 681 mmHg 72%
    08:00 +26°C° 0.1 mm 1 mps 682 mmHg 64%
    09:00 +28°C° 0.1 mm 1 mps 682 mmHg 56%
    10:00 +30°C° 0.1 mm 2 mps 683 mmHg 48%
    11:00 +31°C° 0.1 mm 2 mps 682 mmHg 47%
    12:00 +31°C° 0.1 mm 2 mps 682 mmHg 47%
    13:00 +32°C° 0.1 mm 2 mps 681 mmHg 46%
    14:00 +32°C° 0.2 mm 2 mps 680 mmHg 48%
    15:00 +31°C° 0.2 mm 2 mps 679 mmHg 49%
    16:00 +31°C° 0.2 mm 2 mps 678 mmHg 51%
    17:00 +29°C° 0.2 mm 1 mps 679 mmHg 58%
    18:00 +27°C° 0.2 mm 1 mps 679 mmHg 66%
    19:00 +25°C° 0.2 mm 1 mps 679 mmHg 73%
    20:00 +24°C° 0.1 mm 1 mps 679 mmHg 77%
    21:00 +24°C° 0.1 mm 1 mps 680 mmHg 81%
    22:00 +23°C° 0.1 mm 1 mps 680 mmHg 84%
    23:00 +22°C° 0.9 mm 1 mps 680 mmHg 87%

    Day after tomorrow, 23 November, Friday

    Time Temperature Precipitation Wind Pressure Humidity
    00:00 +22°C° 0.9 mm 1 mps 680 mmHg 90%
    01:00 +21°C° 0.9 mm 1 mps 679 mmHg 93%
    02:00 +21°C° 0.9 mm 1 mps 679 mmHg 93%
    03:00 +21°C° 0.9 mm 1 mps 679 mmHg 93%
    04:00 +21°C° 0.9 mm 1 mps 679 mmHg 93%
    05:00 +21°C° 0.1 mm 1 mps 679 mmHg 92%
    06:00 +22°C° 0.1 mm 1 mps 680 mmHg 90%
    07:00 +20°C° 0.1 mm 0 mps 680 mmHg 88%
    08:00 +25°C° 0.1 mm 1 mps 681 mmHg 78%
    09:00 +27°C° 0.1 mm 1 mps 681 mmHg 67%
    10:00 +30°C° 0.1 mm 1 mps 682 mmHg 57%
    11:00 +30°C° 0.4 mm 2 mps 681 mmHg 60%
    12:00 +30°C° 0.4 mm 2 mps 680 mmHg 62%
    13:00 +30°C° 0.4 mm 2 mps 679 mmHg 65%
    14:00 +29°C° 0.8 mm 2 mps 679 mmHg 67%
    15:00 +29°C° 0.8 mm 2 mps 678 mmHg 69%
    16:00 +28°C° 0.8 mm 2 mps 677 mmHg 71%
    17:00 +27°C° 0.8 mm 1 mps 677 mmHg 77%
    18:00 +25°C° 0.8 mm 1 mps 677 mmHg 83%
    19:00 +24°C° 0.8 mm 1 mps 678 mmHg 89%
    20:00 +23°C° 0.7 mm 1 mps 678 mmHg 90%
    21:00 +23°C° 0.7 mm 1 mps 679 mmHg 91%
    22:00 +23°C° 0.7 mm 1 mps 680 mmHg 93%
    23:00 +22°C° 0.6 mm 1 mps 679 mmHg 93%

    24 November, Saturday

    Time Temperature Precipitation Wind Pressure Humidity
    00:00 +22°C° 0.6 mm 1 mps 679 mmHg 94%
    01:00 +22°C° 0.6 mm 1 mps 679 mmHg 95%
    02:00 +21°C° 0.4 mm 1 mps 679 mmHg 95%
    03:00 +21°C° 0.4 mm 1 mps 678 mmHg 95%
    04:00 +21°C° 0.4 mm 1 mps 678 mmHg 94%
    05:00 +21°C° 0.1 mm 1 mps 679 mmHg 93%
    06:00 +22°C° 0.1 mm 1 mps 679 mmHg 92%
    07:00 +22°C° 0.1 mm 1 mps 680 mmHg 90%
    08:00 +24°C° 0.3 mm 1 mps 680 mmHg 81%
    09:00 +26°C° 0.3 mm 2 mps 681 mmHg 72%
    10:00 +28°C° 0.3 mm 2 mps 682 mmHg 63%
    11:00 +29°C° 0.4 mm 2 mps 681 mmHg 62%
    12:00 +29°C° 0.4 mm 2 mps 680 mmHg 62%
    13:00 +30°C° 0.4 mm 2 mps 679 mmHg 62%
    14:00 +29°C° 0.3 mm 2 mps 678 mmHg 63%
    15:00 +29°C° 0.3 mm 2 mps 678 mmHg 64%
    16:00 +29°C° 0.3 mm 2 mps 677 mmHg 65%
    17:00 +27°C° 0.2 mm 1 mps 677 mmHg 72%
    18:00 +25°C° 0.2 mm 1 mps 678 mmHg 79%
    19:00 +22°C° 0.2 mm 0 mps 678 mmHg 86%
    20:00 +23°C° 0.8 mm 1 mps 679 mmHg 88%
    21:00 +23°C° 0.8 mm 1 mps 679 mmHg 90%
    22:00 +23°C° 0.8 mm 1 mps 680 mmHg 92%
    23:00 +22°C° 0.9 mm 1 mps 680 mmHg 93%

    25 November, Sunday

    Time Temperature Precipitation Wind Pressure Humidity
    00:00 +22°C° 0.9 mm 1 mps 680 mmHg 94%
    01:00 +22°C° 0.9 mm 1 mps 679 mmHg 95%
    02:00 +21°C° 1.1 mm 1 mps 679 mmHg 95%
    03:00 +21°C° 1.1 mm 1 mps 679 mmHg 96%
    04:00 +21°C° 1.1 mm 1 mps 679 mmHg 96%
    05:00 +21°C° 0.3 mm 1 mps 679 mmHg 95%
    06:00 +22°C° 0.3 mm 1 mps 680 mmHg 93%
    07:00 +22°C° 0.3 mm 1 mps 681 mmHg 92%
    08:00 +23°C° 0.8 mm 1 mps 681 mmHg 88%
    09:00 +25°C° 0.8 mm 1 mps 682 mmHg 83%
    10:00 +26°C° 0.8 mm 2 mps 682 mmHg 79%
    11:00 +26°C° 0.6 mm 2 mps 681 mmHg 77%
    12:00 +27°C° 0.6 mm 2 mps 681 mmHg 76%
    13:00 +27°C° 0.6 mm 2 mps 680 mmHg 74%
    14:00 +27°C° 0.7 mm 2 mps 680 mmHg 75%
    15:00 +27°C° 0.7 mm 2 mps 679 mmHg 76%
    16:00 +26°C° 0.7 mm 1 mps 678 mmHg 77%
    17:00 +25°C° 0.4 mm 1 mps 679 mmHg 82%
    18:00 +24°C° 0.4 mm 1 mps 679 mmHg 88%
    19:00 +20°C° 0.4 mm 0 mps 679 mmHg 94%
    20:00 +20°C° 0.2 mm 0 mps 680 mmHg 94%
    21:00 +20°C° 0.2 mm 0 mps 680 mmHg 95%
    22:00 +19°C° 0.2 mm 0 mps 681 mmHg 95%
    23:00 +21°C° 0.1 mm 1 mps 681 mmHg 95%

    26 November, Monday

    Time Temperature Precipitation Wind Pressure Humidity
    00:00 +21°C° 0.1 mm 1 mps 680 mmHg 94%
    01:00 +21°C° 0.1 mm 1 mps 680 mmHg 94%
    02:00 +21°C° 0 mm 1 mps 680 mmHg 93%
    03:00 +19°C° 0 mm 0 mps 680 mmHg 92%
    04:00 +18°C° 0 mm 0 mps 679 mmHg 91%
    05:00 +19°C° 0.2 mm 0 mps 680 mmHg 89%
    06:00 +19°C° 0.2 mm 0 mps 681 mmHg 87%
    07:00 +20°C° 0.2 mm 0 mps 681 mmHg 84%
    08:00 +24°C° 0.4 mm 1 mps 682 mmHg 76%
    09:00 +26°C° 0.4 mm 1 mps 682 mmHg 68%
    10:00 +29°C° 0.4 mm 1 mps 682 mmHg 59%
    11:00 +29°C° 0.3 mm 2 mps 682 mmHg 58%
    12:00 +30°C° 0.3 mm 2 mps 681 mmHg 56%
    13:00 +30°C° 0.3 mm 2 mps 680 mmHg 55%
    14:00 +30°C° 0.1 mm 2 mps 679 mmHg 56%
    15:00 +29°C° 0.1 mm 2 mps 678 mmHg 57%
    16:00 +29°C° 0.1 mm 2 mps 678 mmHg 59%
    17:00 +27°C° 0 mm 2 mps 678 mmHg 67%
    18:00 +26°C° 0 mm 1 mps 678 mmHg 75%
    19:00 +24°C° 0 mm 1 mps 678 mmHg 83%
    20:00 +23°C° 0.2 mm 1 mps 679 mmHg 87%
    21:00 +23°C° 0.2 mm 1 mps 679 mmHg 90%
    22:00 +22°C° 0.2 mm 1 mps 680 mmHg 93%
    23:00 +22°C° 0 mm 1 mps 679 mmHg 93%
    Show more